Weather History for Savoonga, AK

Change the Weather History Date:

Tuesday, October 25, 2011

  Actual Average Record
Temperature  
Mean Temperature 32 °F -  
Max Temperature 33 °F 30 °F 41 °F (2012)
Min Temperature 30 °F 26 °F 10 °F (2008)
Degree Days  
Heating Degree Days 34    
Moisture  
Dew Point 26 °F    
Average Humidity 82    
Maximum Humidity 93    
Minimum Humidity 69    
Precipitation  
Precipitation 0.00 in - - ()
Sea Level Pressure  
Sea Level Pressure 29.34 in    
Wind  
Wind Speed 19 mph (NNW)    
Max Wind Speed 29 mph    
Max Gust Speed 33 mph    
Visibility 7 miles    
Events      
Averages and records for this station are not official NWS values.
T = Trace of Precipitation, MM = Missing Value Source: NWS Daily Summary

Daily Weather History Graph

Daily Weather History Graph

Search for Another Location

Airport:

Trip Planner

Search our weather history database for the weather conditions in past years. The results will help you decide how hot, cold, wet, or windy it might be!

Date:

Astronomy

Oct. 25, 2011 Rise Set
Actual Time 10:40 AM AKDT 7:29 PM AKDT
Civil Twilight 9:50 AM AKDT 8:19 PM AKDT
Nautical Twilight 8:55 AM AKDT 9:14 PM AKDT
Astronomical Twilight 8:01 AM AKDT 10:08 PM AKDT
Moon 9:26 AM AKDT (10/25) 6:34 PM AKDT (10/25)
Length of Visible Light 10h 29m
Length of Day
8h 48m
Waning Crescent, 2% of the Moon is Illuminated
Oct 25
Waning Crescent
Oct 26
New
Nov 2
First Quarter
Nov 10
Full
Nov 18
Last Quarter

Hourly Weather History & Observations

Time (AKDT) Temp. Windchill Dew Point Humidity Pressure Visibility Wind Dir Wind Speed Gust Speed Precip Events Conditions
12:16 AM 32.0 °F 22.1 °F 28.4 °F 87% 29.34 in 2.5 mi NNE 13.8 mph 24.2 mph N/A   Overcast
12:36 AM 33.8 °F 23.9 °F 30.2 °F 87% 29.34 in 7.0 mi NNE 15.0 mph 24.2 mph N/A   Mostly Cloudy
12:56 AM 33.8 °F 23.2 °F 28.4 °F 81% 29.34 in 8.0 mi NNE 17.3 mph - N/A   Overcast
1:16 AM 32.0 °F 20.8 °F 30.2 °F 93% 29.34 in 1.8 mi NNE 17.3 mph 24.2 mph N/A   Overcast
1:36 AM 33.8 °F 22.8 °F 28.4 °F 81% 29.35 in 6.0 mi North 18.4 mph 24.2 mph N/A   Overcast
1:56 AM 33.8 °F 22.8 °F 28.4 °F 81% 29.35 in 6.0 mi North 18.4 mph 24.2 mph N/A   Overcast
2:16 AM 33.8 °F 22.2 °F 28.4 °F 81% 29.34 in 10.0 mi North 20.7 mph 26.5 mph N/A   Mostly Cloudy
2:36 AM 33.8 °F 23.5 °F 30.2 °F 87% 29.35 in 9.0 mi North 16.1 mph 25.3 mph N/A   Mostly Cloudy
2:56 AM 32.0 °F 21.6 °F 28.4 °F 87% 29.35 in 3.0 mi North 15.0 mph 23.0 mph N/A   Overcast
3:16 AM 33.8 °F 22.2 °F 28.4 °F 81% 29.34 in 9.0 mi North 20.7 mph 27.6 mph N/A   Overcast
3:36 AM 33.8 °F 23.5 °F 28.4 °F 81% 29.35 in 10.0 mi North 16.1 mph 21.9 mph N/A   Mostly Cloudy
3:56 AM 33.8 °F 21.9 °F 30.2 °F 87% 29.34 in 5.0 mi North 21.9 mph 27.6 mph N/A   Mostly Cloudy
4:16 AM - - - N/A% 29.34 in 7.0 mi North 25.3 mph 32.2 mph N/A   Overcast
4:36 AM - - - N/A% 29.34 in 6.0 mi North 24.2 mph 29.9 mph N/A   Mostly Cloudy
4:56 AM - - - N/A% 29.34 in 10.0 mi North 25.3 mph 31.1 mph N/A   Overcast
5:16 AM - - - N/A% 29.34 in 10.0 mi North 28.8 mph 33.4 mph N/A   Overcast
5:36 AM - - - N/A% 29.34 in 10.0 mi North 24.2 mph 33.4 mph N/A   Overcast
5:56 AM - - - N/A% 29.34 in 7.0 mi North 26.5 mph 33.4 mph N/A   Overcast
6:16 AM - - - N/A% 29.34 in 6.0 mi NNW 23.0 mph 29.9 mph N/A   Overcast
6:36 AM 32.0 °F 19.2 °F 26.6 °F 80% 29.35 in 7.0 mi NNW 23.0 mph 29.9 mph N/A   Overcast
6:56 AM 32.0 °F 19.5 °F 26.6 °F 80% 29.35 in 9.0 mi NNW 21.9 mph 27.6 mph N/A   Overcast
7:16 AM - - - N/A% 29.34 in 5.0 mi North 25.3 mph 31.1 mph N/A   Overcast
7:36 AM - - - N/A% 29.34 in 5.0 mi North 20.7 mph 31.1 mph N/A   Mostly Cloudy
7:56 AM - - - N/A% 29.34 in 7.0 mi North 20.7 mph 28.8 mph N/A   Overcast
8:16 AM 32.0 °F 19.2 °F 28.4 °F 87% 29.34 in 8.0 mi NNW 23.0 mph 27.6 mph N/A   Overcast
8:36 AM 32.0 °F 19.8 °F 28.4 °F 87% 29.34 in 7.0 mi NNW 20.7 mph 29.9 mph N/A   Overcast
8:56 AM - - - N/A% 29.33 in 4.0 mi NNW 20.7 mph 28.8 mph N/A   Overcast
9:16 AM 32.0 °F 19.5 °F 28.4 °F 87% 29.34 in 3.0 mi NNW 21.9 mph 28.8 mph N/A   Overcast
9:36 AM 32.0 °F 19.8 °F 28.4 °F 87% 29.34 in 2.5 mi NNW 20.7 mph 28.8 mph N/A   Overcast
9:56 AM - - - N/A% 29.33 in 3.0 mi NNW 21.9 mph 27.6 mph N/A   Overcast
10:16 AM - - - N/A% 29.34 in 5.0 mi North 24.2 mph 33.4 mph N/A   Overcast
10:36 AM 32.0 °F 20.5 °F 28.4 °F 87% 29.34 in 3.0 mi NNW 18.4 mph 27.6 mph N/A   Overcast
10:56 AM 32.0 °F 19.5 °F 28.4 °F 87% 29.34 in 3.0 mi North 21.9 mph 26.5 mph N/A   Overcast
11:16 AM 32.0 °F 19.2 °F 30.2 °F 93% 29.34 in 2.0 mi North 23.0 mph 26.5 mph N/A   Overcast
11:36 AM 30.2 °F 17.8 °F 26.6 °F 86% 29.35 in 1.5 mi North 19.6 mph 27.6 mph N/A   Overcast
12:16 PM - - - N/A% - - North - - N/A   Unknown
12:36 PM 30.2 °F 18.1 °F 26.6 °F 86% 29.35 in 2.5 mi NNW 18.4 mph 24.2 mph N/A   Unknown
12:56 PM 30.2 °F 18.1 °F 24.8 °F 80% 29.35 in 4.0 mi North 18.4 mph 24.2 mph N/A   Mostly Cloudy
1:16 PM 30.2 °F 18.1 °F 26.6 °F 86% 29.35 in 4.0 mi North 18.4 mph 21.9 mph N/A   Overcast
1:36 PM 30.2 °F 19.3 °F 26.6 °F 86% 29.35 in 3.0 mi NNW 15.0 mph - N/A   Overcast
1:56 PM 30.2 °F 18.5 °F 26.6 °F 86% 29.35 in 2.0 mi North 17.3 mph - N/A   Overcast
2:16 PM 30.2 °F 18.9 °F 28.4 °F 93% 29.35 in 2.5 mi NNW 16.1 mph - N/A   Overcast
2:36 PM 30.2 °F 18.5 °F 26.6 °F 86% 29.35 in 7.0 mi NNW 17.3 mph - N/A   Mostly Cloudy
2:56 PM 30.2 °F 19.3 °F 26.6 °F 86% 29.35 in 6.0 mi NNW 15.0 mph - N/A   Mostly Cloudy
3:16 PM 30.2 °F 18.9 °F 24.8 °F 80% 29.34 in 10.0 mi NNW 16.1 mph - N/A   Overcast
3:36 PM 30.2 °F 18.9 °F 24.8 °F 80% 29.34 in 10.0 mi NNW 16.1 mph - N/A   Overcast
3:56 PM 30.2 °F 18.9 °F 23.0 °F 75% 29.34 in 10.0 mi NNW 16.1 mph 20.7 mph N/A   Overcast
4:16 PM 30.2 °F 18.9 °F 21.2 °F 69% 29.34 in 10.0 mi NW 16.1 mph - N/A   Overcast
4:36 PM 30.2 °F 19.8 °F 23.0 °F 75% 29.33 in 10.0 mi NW 13.8 mph - N/A   Overcast
4:56 PM 30.2 °F 18.5 °F 21.2 °F 69% 29.34 in 10.0 mi NW 17.3 mph 20.7 mph N/A   Overcast
5:16 PM 30.2 °F 19.3 °F 21.2 °F 69% 29.33 in 10.0 mi NNW 15.0 mph - N/A   Overcast
5:36 PM 30.2 °F 19.8 °F 21.2 °F 69% 29.33 in 10.0 mi NW 13.8 mph 20.7 mph N/A   Overcast
5:56 PM 30.2 °F 18.1 °F 21.2 °F 69% 29.33 in 10.0 mi WNW 18.4 mph - N/A   Overcast
6:16 PM 30.2 °F 18.9 °F 23.0 °F 75% 29.33 in 10.0 mi NW 16.1 mph 21.9 mph N/A   Overcast
6:36 PM 30.2 °F 18.1 °F 21.2 °F 69% 29.33 in 10.0 mi NW 18.4 mph 23.0 mph N/A   Overcast
6:56 PM 30.2 °F 18.9 °F 23.0 °F 75% 29.33 in 10.0 mi WNW 16.1 mph 20.7 mph N/A   Overcast
7:16 PM 30.2 °F 20.2 °F 21.2 °F 69% 29.33 in 10.0 mi WNW 12.7 mph - N/A   Overcast
7:36 PM 30.2 °F 19.3 °F 23.0 °F 75% 29.32 in 10.0 mi WNW 15.0 mph - N/A   Overcast
7:56 PM 30.2 °F 18.9 °F 21.2 °F 69% 29.32 in 10.0 mi NW 16.1 mph - N/A   Overcast
8:16 PM 30.2 °F 19.3 °F 21.2 °F 69% 29.32 in 10.0 mi WNW 15.0 mph 20.7 mph N/A   Overcast
8:36 PM 30.2 °F 19.8 °F 24.8 °F 80% 29.32 in 10.0 mi WNW 13.8 mph - N/A   Overcast
8:56 PM 30.2 °F 19.8 °F 23.0 °F 75% 29.32 in 10.0 mi WNW 13.8 mph 19.6 mph N/A   Overcast
9:16 PM 30.2 °F 18.5 °F 23.0 °F 75% 29.32 in 10.0 mi WNW 17.3 mph - N/A   Overcast
9:36 PM 30.2 °F 18.9 °F 23.0 °F 75% 29.32 in 10.0 mi NW 16.1 mph - N/A   Overcast
9:56 PM 30.2 °F 20.8 °F 21.2 °F 69% 29.33 in 10.0 mi NW 11.5 mph - N/A   Overcast
10:16 PM 30.2 °F 18.9 °F 23.0 °F 75% 29.32 in 10.0 mi WNW 16.1 mph - N/A   Overcast
10:36 PM 30.2 °F 19.3 °F 21.2 °F 69% 29.33 in 10.0 mi NW 15.0 mph - N/A   Overcast
10:56 PM 30.2 °F 19.3 °F 21.2 °F 69% 29.32 in 10.0 mi NW 15.0 mph - N/A   Overcast
11:16 PM 30.2 °F 18.9 °F 19.4 °F 64% 29.32 in 10.0 mi NW 16.1 mph - N/A   Overcast
11:36 PM 30.2 °F 18.1 °F 21.2 °F 69% 29.32 in 10.0 mi NW 18.4 mph - N/A   Overcast
11:56 PM 30.2 °F 19.3 °F 21.2 °F 69% 29.33 in 10.0 mi WNW 15.0 mph 20.7 mph N/A   Overcast